#timestamp,LO_Frequency,Hit,StdDev 
1510545615.2,286046990.4,N
1510545635.0,286046989.7,N
1510545635.9,286046989.7,Y
1510545655.8,286047002.4,P
1510545675.6,286047000.9,N
1510545695.4,286046998.8,N
1510545715.2,286047001.2,N
1510545735.1,286047002.7,N
1510545736.0,286047002.7,N
1510545755.8,286047002.2,N
1510545775.6,286046999.8,N
1510545795.5,286047000.5,N
1510545815.3,286046998.9,N
1510545835.1,286046996.6,N
1510545855.9,286046999.0,N
1510545875.7,286047004.2,N
1510545895.5,286046998.5,N
1510545915.4,286047003.9,N
1510545935.2,286047001.3,N
1510545955.0,286046998.2,N
1510545955.9,286046998.2,N
1510545975.7,286047002.2,N
1510545995.6,286047001.9,N
1510546015.4,286047005.2,N
1510546035.2,286047004.9,N
1510546055.1,286047006.6,N
1510546056.0,286047006.6,N
1510546075.8,286047005.4,N
1510546095.6,286047005.2,N
1510546115.5,286047001.5,N
1510546135.3,286047005.7,N
1510546155.1,286047004.8,N
1510546175.9,286047008.7,N
1510546195.7,286047008.8,N
1510546215.5,286047011.8,Y
1510546235.4,286047010.2,P
1510546255.2,286047010.1,N
1510546275.0,286047007.8,N
1510546275.9,286047007.8,N
1510546295.8,286047007.3,N
1510546315.6,286047008.8,Y
1510546335.4,286047001.9,P
1510546355.3,286047001.5,N
1510546375.1,286047001.8,N
1510546376.0,286047001.8,N
1510546395.8,286047001.4,N
1510546415.7,286047002.9,N
1510546435.5,286047001.4,N
1510546455.3,286047004.0,N
1510546475.1,286047004.6,N
1510546495.9,286047005.8,Y
1510546515.7,286047002.1,P
1510546535.6,286046999.7,N
1510546555.4,286046998.6,N
1510546575.2,286047001.2,N
1510546595.0,286047001.1,N
1510546595.9,286047001.1,N
1510546615.8,286047000.0,N
1510546635.6,286046999.4,N
1510546655.4,286046999.5,N
1510546675.3,286046999.6,N
1510546695.1,286046997.4,N
1510546715.8,286046998.7,N
1510546735.7,286046999.3,N
1510546755.5,286046998.2,N
1510546775.3,286046995.2,Y
1510546795.2,286046995.0,P
1510546815.9,286046996.0,N
1510546835.7,286046997.5,N
1510546855.6,286046998.4,N
1510546875.4,286046999.5,N
1510546895.2,286047001.2,N
1510546915.0,286047000.1,N
1510546916.0,286047000.1,N
1510546935.8,286047002.7,N
1510546955.6,286047002.0,N
1510546975.4,286047003.7,N
1510546995.3,286047001.5,N
1510547015.1,286047002.5,N
1510547035.8,286047005.7,N
1510547055.7,286047007.4,N
1510547075.5,286047007.7,N
1510547095.3,286047009.9,N
1510547115.2,286047012.0,Y
1510547135.9,286047014.0,P
1510547155.7,286047016.4,N
1510547175.6,286047016.8,N
1510547195.4,286047015.7,N
1510547215.2,286047021.1,Y
1510547235.1,286047012.1,P
1510547236.0,286047012.1,P
1510547255.8,286047013.7,P
1510547275.6,286047009.7,Y
1510547295.5,286046998.7,P
1510547315.3,286046995.1,N
1510547335.1,286046996.4,N
1510547355.9,286046993.5,N
1510547375.7,286046994.4,N
1510547395.5,286046990.7,N
1510547415.4,286046986.9,N
1510547435.2,286046988.2,N
1510547455.0,286046986.1,N
1510547455.9,286046986.1,N
1510547475.7,286046981.3,N
1510547495.6,286046983.2,N
1510547515.4,286046983.4,N
1510547535.2,286046981.9,N
1510547555.1,286046978.9,N
1510547556.0,286046978.9,N
1510547575.8,286046977.3,N
1510547595.6,286046978.8,N
1510547615.5,286046977.9,N
1510547635.3,286046978.7,N
1510547655.1,286046974.6,N
1510547675.9,286046975.1,N
1510547695.7,286046973.4,N
1510547715.5,286046971.9,Y
1510547735.4,286046986.8,P
1510547755.2,286046983.4,P
1510547775.0,286046979.4,P
1510547775.9,286046979.4,Y
1510547795.8,286046997.5,P
1510547815.6,286047000.5,N
1510547835.4,286047002.6,N
1510547855.3,286047000.6,N
1510547875.1,286047001.9,N
1510547876.0,286047001.9,N
1510547895.8,286047007.0,N
1510547915.7,286047005.9,N
1510547935.5,286047006.1,N
1510547955.3,286047006.2,N
1510547975.1,286047012.2,N
1510547995.9,286047012.5,N
1510548015.7,286047012.1,N
1510548035.5,286047011.2,N
1510548055.4,286047012.3,N
1510548075.2,286047018.8,N
1510548095.0,286047013.6,N
1510548095.9,286047013.6,N
1510548115.8,286047013.1,N
1510548135.6,286047009.9,N
1510548155.4,286047005.9,N
1510548175.3,286047004.2,N
1510548195.1,286047000.0,N
1510548196.0,286047000.0,N
1510548215.8,286046999.3,N
1510548235.7,286046999.2,N
1510548255.5,286046995.3,N
1510548275.3,286046995.3,N
1510548295.2,286046994.0,N
1510548315.9,286046997.5,N
1510548335.7,286046996.4,N
1510548355.5,286046999.5,N
1510548375.4,286046997.4,N
1510548395.2,286046995.9,N
1510548415.0,286046995.4,N
1510548415.9,286046995.4,N
1510548435.8,286046995.5,N
1510548455.6,286046997.3,N
1510548475.4,286047001.0,N
1510548495.3,286047000.2,N
1510548515.1,286047003.2,N
1510548516.0,286047003.2,N
1510548535.8,286047005.9,N
1510548555.7,286047003.6,N
1510548575.5,286047007.0,N
1510548595.3,286047008.3,N
1510548615.2,286047013.8,N
1510548635.9,286047015.4,N
1510548655.7,286047015.7,N
1510548675.6,286047020.9,Y
1510548695.4,286047026.4,P
1510548715.2,286047028.1,N
1510548735.1,286047029.9,N
1510548736.0,286047029.9,N
1510548755.8,286047030.4,N
1510548775.6,286047028.5,N
1510548795.5,286047029.7,Y
1510548815.3,286047005.5,P
1510548835.1,286047005.4,N
1510548855.9,286047006.5,N
1510548875.7,286047007.7,N
1510548895.5,286047008.0,N
1510548915.3,286047007.8,N
1510548935.2,286047010.6,N
1510548955.0,286047009.8,N
1510548955.9,286047009.8,N
1510548975.7,286047010.5,N
1510548995.6,286047011.6,N
1510549015.4,286047009.3,N
1510549035.2,286047009.8,N
1510549055.1,286047012.0,N
1510549056.0,286047012.0,N
1510549075.8,286047012.1,N
1510549095.6,286047010.0,N
1510549115.5,286047012.4,N
1510549135.3,286047010.3,N
1510549155.1,286047006.4,N
1510549175.9,286047008.7,N
1510549195.7,286047009.5,N
